www.pogodaiklimat.ru

Погода и климат >> Архив погоды >> Россия >> Ханты-Мансийский АО >> Ваховск


ПОГОДА в Ваховске

  • Прогноз погоды в Ваховске
  • Монитор погоды в Ваховске
  • Климат города

АРХИВ ПОГОДЫ в Ваховске

Время (UTC), дата Ветер
(напр.,м/с)
 
Видим.   Явления Облачность Т
(С)
Тd
(С)
f
(%)
Тe
(С)
Тes
(С)
Комфортность P
(гПа)
Po
(гПа)
Тmin
(С)
Tmax
(С)
R
(мм)
R24
(мм)
S
(см)
09 19.06 Ю 5
{13}
10 км 6/6 600 м
[Cb cap]
+31.4 +10.7 28 +31 +34 жарко 997.1 991.0
15 19.06 Ю 2
{11}
10 км 1/1 600 м
[Cb cap]
+24.9 +8.0 34 +25 +25 комфорт 999.0 992.8 +31.9
18 19.06 Ю 2 10 км ясно +19.6 +9.8 53 +21 +21 комфорт 1000.2 993.8
21 19.06 ЮВ 2 10 км ясно +17.8 +9.7 59 +18 +18 1000.6 994.2
00 20.06 ЮВ 3 10 км ясно +18.7 +10.7 60 +19 +21 1000.3 993.9
03 20.06 Ю 4 10 км ясно +23.3 +10.0 43 +25 +30 комфорт 999.8 993.5 +17.2
06 20.06 Ю 7-15
{15}
н/о н/о +25.7 +7.2 31 +26 +26 жарко 998.6 992.4
18 20.06 ЮВ 2 10 км 1/1 600 м
[Sc]
+19.2 +8.2 49 +20 +20 997.3 991.0
21 20.06 Ю 3 10 км ясно +16.7 +9.9 64 +17 +17 997.5 991.1
00 21.06 Ю 4 10 км ясно +17.0 +10.4 65 +17 +18 997.8 991.4
03 21.06 Ю 5 10 км ясно +20.1 +8.2 46 +21 +25 комфорт 997.9 991.6 +16.0
06 21.06 Ю 3
{12}
н/о н/о +23.2 +9.0 40 +25 +25 комфорт 998.1 991.8
09 21.06 Ю 4 10 км 4/4 600 м
[Cb cap]
+24.1 +7.7 35 +24 +29 комфорт 997.5 991.3
12 21.06 Ю 2 н/о н/о +24.6 +7.3 33 +25 +25 комфорт 997.2 991.0
18 21.06 Ю 2 н/о н/о +17.7 +12.3 71 +18 +18 998.4 992.0
21 21.06 штиль 0 10 км 10/0
[Ci fib]
+14.0 +12.4 90 +14 +14 999.2 992.7
00 22.06 Ю 1 10 км 9/9 600 м
[Cb cap]
+16.1 +13.0 82 +17 +17 1000.1 993.7
03 22.06 штиль 0 4000 м слабый ливневой дождь 10/10 600 м
[Cb cap]
+16.7 +14.7 88 +17 +17 1001.8 995.4 +13.6
06 22.06 С 2 н/о н/о +22.8 +15.5 63 +27 +27 душно 1002.0 995.7
09 22.06 ЮВ 1 10 км 3/3 600 м
[Cb cap]
+25.7 +9.9 37 +26 +36 жарко 1001.7 995.5
12 22.06 ЮЗ 1 н/о н/о +22.6 +11.4 49 +25 +25 комфорт 1002.3 996.0
18 22.06 В 1 10 км 3/3 600 м
[Cb cap]
+15.4 +13.8 90 +16 +16 1004.4 997.9
21 22.06 В 1 10 км 1/1 600 м
[Cb cap]
+13.4 +12.4 94 +13 +13 1005.0 998.5
00 23.06 штиль 0 10 км ясно +18.7 +15.2 80 +20 +22 1005.8 999.4
03 23.06 С 1 10 км ясно +24.9 +14.1 51 +27 +36 жарко 1006.5 1000.2 +12.4
06 23.06 СВ 1 н/о н/о +26.3 +12.9 43 +28 +28 жарко 1006.6 1000.3
09 23.06 ЮЗ 1 10 км 6/6 600 м
[Cu med, cong]
+28.2 +8.7 29 +28 +33 жарко 1006.4 1000.2
12 23.06 З 1 н/о н/о +29.0 +9.9 30 +29 +29 жарко 1005.8 999.6
18 23.06 штиль 0 10 км ясно +15.6 +13.4 87 +15 +15 1006.4 999.9
21 23.06 С 1 10 км ясно +15.6 +14.7 94 +16 +16 1006.6 1000.1
00 24.06 штиль 0 10 км ясно +21.8 +14.5 63 +25 +27 комфорт 1006.4 1000.1
03 24.06 ЮВ 2 10 км 8/0
[Ci fib]
+26.2 +12.4 42 +28 +34 жарко 1005.9 999.6 +14.4
06 24.06 ЮВ 3 н/о н/о +27.9 +10.5 34 +28 +28 жарко 1004.9 998.7
09 24.06 ЮВ 3 10 км 10/4 600 м
[Cb cap Ci fib]
+29.2 +10.4 31 +29 +34 жарко 1003.7 997.5
12 24.06 Ю 2 н/о н/о +27.5 +9.4 32 +28 +28 жарко 1002.7 996.5
18 24.06 ЮВ 2 10 км 10/0
[Ci fib]
+22.3 +12.5 54 +25 +25 комфорт 1001.8 995.4
21 24.06 ЮВ 2 10 км 8/0
[Ac trans]
+20.1 +12.8 63 +23 +23 комфорт 1000.6 994.2
00 25.06 З 2 10 км 10/0
[Ac und]
+19.4 +15.9 80 +22 +22 комфорт 1000.8 994.4
03 25.06 ЮЗ 1 4000 м слабый ливневой дождь 10/10 600 м
[Cb cap]
+17.9 +16.8 93 +19 +19 1001.2 994.8 +17.9 4
06 25.06 ЮЗ 1 н/о н/о +18.1 +16.8 92 +19 +19 1001.7 995.3 +17.9
09 25.06 Ю 1 10 км 10/0 600 м
[Ci fib]
+20.7 +16.8 78 +25 +34 комфорт 1002.3 995.9
12 25.06 штиль 0 н/о н/о +22.2 +16.8 71 +27 +27 душно 1002.6 996.3
18 25.06 З 1 10 км 10/0
[Ci fib]
+15.7 +11.0 74 +16 +16 1005.4 998.9
21 25.06 З 1 10 км 10/0
[Ci fib]
+11.3 -9.9 22 +12 +12 1006.0 999.5
00 26.06 С 1 10 км 10/0
[Ci fib]
+15.7 +10.9 73 +16 +18 1006.2 999.7
03 26.06 штиль 0 10 км 10/0
[Ci fib]
+19.4 +13.8 70 +21 +29 комфорт 1006.3 999.9 +10.6
06 26.06 СЗ 2 н/о н/о +23.7 +12.5 49 +26 +26 жарко 1005.5 999.2

 

Местоположение метеостанции Ваховск (Ханты-Мансийский АО, Россия): широта 60.95 долгота 78.77 высота над уровнем моря 56 м.

В архиве по умолчанию представлена погода в Ваховске за последнюю неделю. Архивные данные за месяц целиком и за предыдущие месяцы, начиная с января 2011 года, Вы можете получить, выбрав интересующий диапазон дат из раскрывающегося списка и нажав кнопку "Ввод!".

Внимание! Время в таблицах - всемирное. Для получения местного времени необходимо прибавить поправку, которая в Ваховске равна 5 ч.

Смотрите также архив погоды в соседних городах и на ближайших метеорологических станциях:

Погода в Александровском (Томская область, Россия) (76 км)
Погода в Ларьяке (Ханты-Мансийский АО, Россия) (81 км)
Погода в Нижневартовске (Ханты-Мансийский АО, Россия) (117 км)
Погода в Радужном (Ханты-Мансийский АО, Россия) (154 км)
Погода в Прохоркино (Томская область, Россия) (164 км)
Погода в Среднем Васюгане (Томская область, Россия) (195 км)
Погода в Корликах (Ханты-Мансийский АО, Россия) (206 км)
Погода в Напасе (Томская область, Россия) (213 км)
Погода в Каргасоке (Томская область, Россия) (239 км)
Погода в Угуте (Ханты-Мансийский АО, Россия) (263 км)

Пояснения к столбцам:

Ветер - указаны скорость ветра в м/с - средняя за 10 мин, порывы в срок и между сроками (в фигурных скобках) и направление, откуда дует ветер: С - северный, СВ - северо-восточный, В - восточный, ЮВ - юго-восточный, Ю - южный, ЮЗ - юго-западный, З - западный, СЗ - северо-западный.
Видимость - горизонтальная дальность видимости в метрах или километрах. При видимости от 1 до 10 км при отсутствии осадков обычно наблюдается дымка, при ухудшении видимости до 1 км и менее - туман. В сухую погоду видимость может ухудшаться дымом, пылью или мглою.
Явления - указаны атмосферные явления, наблюдавшиеся в срок или в последний час перед сроком; фигурными скобками обозначены явления, наблюдавшиеся между сроками (за 1-3 часа до срока); квадратными скобками обозначены град или гололедные отложения с указанием их диаметра в мм.
Облачность - указаны через наклонную черту общая и нижняя облачность в баллах и высота нижней границы облаков в метрах; квадратными скобками обозначены формы облаков: Ci - перистые, Cs - перисто-слоистые, Cc - перисто-кучевые, Ac - высококучевые, As - высокослоистые, Sc - слоисто-кучевые, Ns - слоисто-дождевые, Cu - кучевые, Cb - кучево-дождевые. Подробнее классификацию облаков см. в Атласе облаков (PDF).
T - Температура воздуха - температура, измеренная на высоте 2 м над землей.
Td - Температура точки росы - температура, при понижении до которой содержащийся в воздухе водяной пар достигнет насыщения.
f - Относительная влажность воздуха - влажноcть воздуха, измеренная на высоте 2 м над землей.
Te - Эффективная температура - температура, которую ощущает одетый по сезону человек в тени. Характеристика душности погоды. При расчете учитывается влияние влажности воздуха и скорости ветра на теплоощущения человека.
Tes - Эффективная температура на солнце - температура, которую ощущает человек, с поправкой на солнечный нагрев. Характеристика знойности погоды. Зависит от высоты солнца над горизонтом, облачности и скорости ветра. Ночью, в пасмурную погоду, а также при ветре 12 м/с и более поправка равна нулю.
P - Атмосферное давление - приведенное к уровню моря атмосферное давление.
Po - Атмосферное давление - измеренное на уровне метеостанции атмосферное давление.
Tmin - Минимальная температура - минимум температуры воздуха на высоте 2 м над землей.
Tmax - Максимальная температура - максимум температуры воздуха на высоте 2 м над землей.
R - Количество осадков - Количество выпавших осадков за период времени, мм. При наведении курсора мыши на число - период времени, за который выпало указанное количество осадков.
R24 - Количество осадков - Количество выпавших осадков за 24 часа, мм.
S - Снежный покров - Высота снежного покрова, см. При наведении курсора мыши на число - состояние снежного покрова и степень покрытия местности в баллах.